Location: Del Amo
(33.8464°N, 118.2104°W)
Time: 08:44:42
(UTC+00:00)

Vanguard 3 - Pass Details

Date: 17 September 2024
Orbit: 507 x 3223 km, 33.3° (Epoch: 09 October)

Event Time Altitude Azimuth Distance (km) Brightness Sun altitude
Rises 20:30:05 0° 286° (WNW) 6,871 11.9 56.4°
Reaches altitude 10° 20:35:33 10° 280° (W) 5,548 11.6 56.0°
Maximum altitude 20:49:04 38° 221° (SW) 2,778 11.6 54.8°
Drops below altitude 10° 20:57:32 10° 157° (SSE) 3,475 10.8 54.0°
Sets 21:00:09 0° 148° (SSE) 4,134 11.0 53.7°
